Location: Fauquembergues
(50.6005°N, 2.0987°E)
Time: 10:38:45
(UTC+00:00)

Cosmos 1818 - Pass Details

Date: 14 July 2020
Orbit: 777 x 796 km, 65.0° (Epoch: 05 August)

Event Time Altitude Azimuth Distance (km) Brightness Sun altitude
Rises 02:57:17 0° 318° (NW) 3,309 6.9 -7.6°
Reaches altitude 10° 02:59:44 10° 315° (NW) 2,376 6.1 -7.4°
Maximum altitude 03:05:08 63° 236° (SW) 887 3.6 -6.8°
Drops below altitude 10° 03:10:29 10° 156° (SSE) 2,358 5.8 -6.2°
Sets 03:12:55 0° 153° (SSE) 3,282 6.6 -6.0°
